Meteo pe oră la Alichur

Astăzi, 24 Ianuarie, Duminică

Timp Temperatura Precipitaţii Vânt Presiune Umiditate
00:00 -37°C° 0 mm 2 m/s 441 mmHg 65%
01:00 -34°C° 0 mm 1 m/s 440 mmHg 63%
02:00 -34°C° 0 mm 1 m/s 440 mmHg 62%
03:00 -34°C° 0 mm 1 m/s 439 mmHg 57%
04:00 -34°C° 0 mm 1 m/s 439 mmHg 54%
05:00 -35°C° 0 mm 1 m/s 439 mmHg 51%
06:00 -34°C° 0 mm 1 m/s 440 mmHg 48%
07:00 -34°C° 0 mm 1 m/s 440 mmHg 45%
08:00 -33°C° 0 mm 1 m/s 441 mmHg 43%
09:00 -31°C° 0 mm 1 m/s 443 mmHg 44%
10:00 -28°C° 0 mm 1 m/s 444 mmHg 46%
11:00 -24°C° 0 mm 1 m/s 446 mmHg 47%
12:00 -23°C° 0 mm 1 m/s 446 mmHg 52%
13:00 -22°C° 0 mm 1 m/s 446 mmHg 56%
14:00 -21°C° 0 mm 1 m/s 446 mmHg 61%
15:00 -23°C° 0 mm 1 m/s 445 mmHg 63%
16:00 -27°C° 0 mm 1 m/s 443 mmHg 65%
17:00 -28°C° 0 mm 0 m/s 441 mmHg 68%
18:00 -29°C° 0 mm 0 m/s 441 mmHg 61%
19:00 -30°C° 0 mm 0 m/s 441 mmHg 55%
20:00 -31°C° 0 mm 0 m/s 441 mmHg 48%
21:00 -31°C° 0 mm 0 m/s 441 mmHg 44%
22:00 -31°C° 0 mm 0 m/s 441 mmHg 39%
23:00 -32°C° 0 mm 1 m/s 441 mmHg 35%

Mâine, 25 Ianuarie, Luni

Timp Temperatura Precipitaţii Vânt Presiune Umiditate
00:00 -33°C° 0 mm 1 m/s 441 mmHg 32%
01:00 -33°C° 0 mm 1 m/s 441 mmHg 29%
02:00 -33°C° 0 mm 1 m/s 441 mmHg 27%
03:00 -33°C° 0 mm 1 m/s 441 mmHg 26%
04:00 -34°C° 0 mm 1 m/s 440 mmHg 25%
05:00 -34°C° 0 mm 1 m/s 440 mmHg 24%
06:00 -33°C° 0 mm 1 m/s 441 mmHg 24%
07:00 -32°C° 0 mm 0 m/s 442 mmHg 24%
08:00 -31°C° 0 mm 0 m/s 442 mmHg 24%
09:00 -30°C° 0 mm 1 m/s 444 mmHg 29%
10:00 -27°C° 0 mm 1 m/s 446 mmHg 34%
11:00 -23°C° 0 mm 1 m/s 447 mmHg 39%
12:00 -22°C° 0 mm 1 m/s 447 mmHg 45%
13:00 -21°C° 0 mm 1 m/s 447 mmHg 51%
14:00 -20°C° 0 mm 1 m/s 447 mmHg 58%
15:00 -22°C° 0 mm 1 m/s 445 mmHg 60%
16:00 -24°C° 0 mm 1 m/s 444 mmHg 61%
17:00 -27°C° 0 mm 1 m/s 443 mmHg 63%
18:00 -28°C° 0 mm 1 m/s 443 mmHg 57%
19:00 -28°C° 0 mm 1 m/s 443 mmHg 52%
20:00 -29°C° 0 mm 1 m/s 443 mmHg 46%
21:00 -29°C° 0 mm 1 m/s 442 mmHg 43%
22:00 -30°C° 0 mm 1 m/s 442 mmHg 40%
23:00 -30°C° 0 mm 1 m/s 442 mmHg 37%

Poimâine, 26 Ianuarie, Marţi

Timp Temperatura Precipitaţii Vânt Presiune Umiditate
00:00 -30°C° 0 mm 1 m/s 442 mmHg 38%
01:00 -30°C° 0 mm 1 m/s 441 mmHg 38%
02:00 -31°C° 0 mm 1 m/s 441 mmHg 38%
03:00 -30°C° 0 mm 1 m/s 441 mmHg 40%
04:00 -30°C° 0 mm 1 m/s 442 mmHg 42%
05:00 -30°C° 0 mm 1 m/s 442 mmHg 44%
06:00 -28°C° 0 mm 0 m/s 443 mmHg 45%
07:00 -28°C° 0 mm 0 m/s 443 mmHg 47%
08:00 -27°C° 0 mm 0 m/s 444 mmHg 48%
09:00 -25°C° 0 mm 1 m/s 445 mmHg 49%
10:00 -23°C° 0 mm 1 m/s 446 mmHg 50%
11:00 -21°C° 0 mm 1 m/s 447 mmHg 51%
12:00 -20°C° 0 mm 1 m/s 447 mmHg 55%
13:00 -19°C° 0 mm 1 m/s 447 mmHg 60%
14:00 -18°C° 0 mm 1 m/s 447 mmHg 64%
15:00 -21°C° 0 mm 1 m/s 446 mmHg 68%
16:00 -23°C° 0 mm 1 m/s 444 mmHg 72%
17:00 -25°C° 0 mm 1 m/s 443 mmHg 76%
18:00 -27°C° 0 mm 1 m/s 443 mmHg 74%
19:00 -28°C° 0 mm 1 m/s 442 mmHg 72%
20:00 -29°C° 0 mm 1 m/s 442 mmHg 71%
21:00 -29°C° 0 mm 1 m/s 442 mmHg 71%
22:00 -30°C° 0 mm 1 m/s 442 mmHg 72%
23:00 -30°C° 0 mm 1 m/s 442 mmHg 73%

27 Ianuarie, Miercuri

Timp Temperatura Precipitaţii Vânt Presiune Umiditate
00:00 -30°C° 0 mm 1 m/s 442 mmHg 75%
01:00 -31°C° 0 mm 1 m/s 442 mmHg 77%
02:00 -31°C° 0 mm 1 m/s 441 mmHg 78%
03:00 -32°C° 0 mm 1 m/s 441 mmHg 80%
04:00 -32°C° 0 mm 1 m/s 441 mmHg 82%
05:00 -32°C° 0 mm 1 m/s 441 mmHg 84%
06:00 -32°C° 0 mm 1 m/s 441 mmHg 84%
07:00 -31°C° 0 mm 0 m/s 441 mmHg 83%
08:00 -31°C° 0 mm 0 m/s 442 mmHg 82%
09:00 -28°C° 0 mm 0 m/s 443 mmHg 78%
10:00 -26°C° 0 mm 0 m/s 445 mmHg 74%
11:00 -23°C° 0 mm 0 m/s 447 mmHg 71%
12:00 -22°C° 0 mm 1 m/s 447 mmHg 72%
13:00 -21°C° 0 mm 1 m/s 447 mmHg 74%
14:00 -20°C° 0 mm 1 m/s 447 mmHg 76%
15:00 -22°C° 0 mm 1 m/s 445 mmHg 81%
16:00 -25°C° 0 mm 1 m/s 443 mmHg 85%
17:00 -28°C° 0 mm 1 m/s 442 mmHg 90%
18:00 -29°C° 0 mm 1 m/s 441 mmHg 87%
19:00 -29°C° 0 mm 0 m/s 441 mmHg 84%
20:00 -30°C° 0 mm 0 m/s 441 mmHg 81%
21:00 -30°C° 0 mm 0 m/s 441 mmHg 80%
22:00 -31°C° 0 mm 0 m/s 441 mmHg 78%
23:00 -31°C° 0 mm 0 m/s 441 mmHg 77%

28 Ianuarie, Joi

Timp Temperatura Precipitaţii Vânt Presiune Umiditate
00:00 -31°C° 0 mm 0 m/s 441 mmHg 77%
01:00 -32°C° 0 mm 0 m/s 441 mmHg 78%
02:00 -32°C° 0 mm 0 m/s 441 mmHg 78%
03:00 -32°C° 0 mm 0 m/s 440 mmHg 78%
04:00 -33°C° 0 mm 0 m/s 440 mmHg 79%
05:00 -33°C° 0 mm 0 m/s 440 mmHg 79%
06:00 -33°C° 0 mm 0 m/s 441 mmHg 78%
07:00 -32°C° 0 mm 0 m/s 441 mmHg 76%
08:00 -32°C° 0 mm 0 m/s 442 mmHg 75%
09:00 -29°C° 0 mm 0 m/s 443 mmHg 72%
10:00 -27°C° 0 mm 0 m/s 445 mmHg 69%
11:00 -24°C° 0 mm 0 m/s 447 mmHg 66%
12:00 -23°C° 0 mm 1 m/s 447 mmHg 69%
13:00 -22°C° 0 mm 1 m/s 447 mmHg 72%
14:00 -21°C° 0 mm 1 m/s 447 mmHg 74%
15:00 -23°C° 0 mm 1 m/s 445 mmHg 78%
16:00 -25°C° 0 mm 1 m/s 443 mmHg 83%
17:00 -28°C° 0 mm 1 m/s 442 mmHg 87%
18:00 -29°C° 0 mm 1 m/s 442 mmHg 82%
19:00 -30°C° 0 mm 1 m/s 441 mmHg 76%
20:00 -31°C° 0 mm 1 m/s 441 mmHg 71%
21:00 -32°C° 0 mm 1 m/s 441 mmHg 68%
22:00 -32°C° 0 mm 1 m/s 441 mmHg 65%
23:00 -32°C° 0 mm 1 m/s 442 mmHg 62%

29 Ianuarie, Vineri

Timp Temperatura Precipitaţii Vânt Presiune Umiditate
Arată mai mult

Formular de consimțământ

Meteoprog și furnizorii noștri de servicii pot stoca și accesa date personale, precum cookies, identificatori de dispozitiv sau alte tehnologii similare pe dispozitivul dumneavoastră și procesa astfel de date pentru a personaliza conținutul și reclamele, dar și pentru a oferi caracteristici de social media și pentru a analiza traficul.

  • Stocarea și/sau accesarea informațiilor pe dispozitivul dumneavoastră

    Cookies, identificatori de dispozitiv sau alte informații pot fi stocate sau accesate pe dispozitiv în scopurile indicate mai sus.

  • Reclame și conținut personalizat, evaluarea reclamelor și a conținutului, informații despre audiențe și dezvoltarea produselor

    Reclamele și conținutul pot fi personalizate pe baza unui profil. Pot fi adăugate date suplimentare pentru a personaliza mai bine reclamele și conținutul. Performanța reclamelor și conținutului poate fi măsurată. Pot fi obținute informații despre utilizatorii care au văzut reclamele și conținutul. Aceste date pot fi utilizate pentru a dezvolta sau îmbunătăți experiența utilizatorilor, sistemele și software-ul.

Dând clic pe ‘Sunt de acord’, permiteți utilizarea cookie-urilor menționate, a identificatorilor de dispozitiv, balizelor web sau altor tehnologii similare. Setările pot fi modificate din browser-ul dispozitivului dumneavoastră.

În anumite scopuri, interesele legitime pot prima asupra consimțământului. Puteți citi mai multe informații în acest sens în Politica privind Confidențialitatea Datelor și Cookie.